Regional Weather Roundup
Issued by NWS Charleston, SC

Current Version | Previous Version | Text Only | Print | Product List | Glossary Off
Versions: 1 2 3 4 5 6 7 8 9 10 11 12 13 14 15 16 17 18 19 20 21 22 23 24 25 26 27 28 29 30 31 32 33 34 35 36 37 38 39 40 41 42 43 44 45 46 47 48 49 50

000
ASUS42 KCHS 281910
RWRCHS
REGIONAL WEATHER ROUNDUP
NATIONAL WEATHER SERVICE CHARLESTON SC
300 PM EDT THU AUG 28 2014

NOTE: "FAIR" INDICATES FEW OR NO CLOUDS BELOW 12,000 FEET WITH NO
SIGNIFICANT WEATHER AND/OR OBSTRUCTIONS TO VISIBILITY.

NOT ALL STATIONS ARE QUALITY CONTROLLED BY THE NATIONAL
WEATHER SERVICE. USE DATA WITH CAUTION...ESPECIALLY
DEWPOINT OBSERVATIONS.

SCZ027-030-031-034>040-042>050-282000-
...SOUTH CAROLINA...

CITY           SKY/WX    TMP DP  RH WIND       PRES   REMARKS
N CHARLESTON   MOSUNNY   91  61  36 CALM      29.99F HX  91
WATERFRONT PRK   N/A     84 N/A N/A SE7         N/A
FORT JOHNSON   NOT AVBL
MOUNT PLEASANT FAIR      90  66  45 SE7       29.99F HX  92
JOHNS ISLAND   CLEAR     88  70  55 S6        30.01S HX  92
PINOPOLIS        N/A     93  64  38 CALM      29.93S HX  95
MONCKS CORNER    N/A     91  64  40 CALM      29.99F HX  93
SUMMERVILLE    FAIR      90  59  35 SE3       30.00F
BEAUFORT MCAS  MOSUNNY   90  60  36 CALM      30.01F
BEAUFORT ARPT  FAIR      88  66  48 S3        30.01S HX  90
HILTON HEAD IS SUNNY     88  57  35 E6        30.03F
GEORGETOWN     NOT AVBL
WALTERBORO     CLEAR     91  46  21 CALM      30.00F
ORANGEBURG     SUNNY     91  52  26 S3        29.99F
BARNWELL       FAIR      93  52  24 S6        29.99F HX  90
AIKEN          FAIR      95  59  30 S7        30.02F HX  94
MANNING        FAIR      91  61  35 S3        29.99F HX  91
KINGSTREE      NOT AVBL
COLUMBIA       MOSUNNY   94  57  28 E6        29.97F HX  92
SUMTER         SUNNY     94  60  32 E6        29.97F HX  94
FLORENCE       SUNNY     92  60  34 MISG      29.98F HX  91
MYRTLE BEACH   SUNNY     91  63  38 NW6       29.99F HX  92
N MYRTLE BEACH NOT AVBL

$$

GAZ063-065-086>088-099>101-113>116-118-119-134-136>141-150-282000-
...GEORGIA...

CITY           SKY/WX    TMP DP  RH WIND       PRES   REMARKS
SAVANNAH ARPT  MOSUNNY   90  59  35 SW6       30.01F
HUNTER AAF     SUNNY     89  64  43 SE9       29.99F HX  90
FORT STEWART   SUNNY     91  58  32 SE8       29.99F
STATESBORO     NOT AVBL
SYLVANIA       CLEAR     92  63  38 SW6       30.00F HX  93
CLAXTON        NOT AVBL
THOMSON        SUNNY     94  64  36 CALM      30.04F HX  95
AUGUSTA-BUSH   SUNNY     93  54  26 E5        29.98F HX  91
AUGUSTA-DANIEL SUNNY     93  51  23 VRB6      30.00F HX  90
SWAINSBORO     FAIR      95  59  30 NW3       30.00F HX  94
VIDALIA          N/A     91  59  33 N5        30.00F HX  90
ALMA           SUNNY     91  57  31 VRB3      30.00F
WAYCROSS       SUNNY     94  62  33 SE3       29.99F HX  94
JESUP            N/A     95  59  30 CALM      30.00F HX  94
BRUNSWICK      PTSUNNY   88  66  48 SE6       30.02F HX  90
SAINT SIMONS   SUNNY     84  70  62 E8        30.02F

$$

SCZ027-028-034-036>038-045-046-048>050-GAZ119-141-282000-
...LAKE AND SUPPLEMENTAL COASTAL OBSERVATIONS...

STATION/POSITION TIME  TEMP    WIND        PRES    WAVE   SWELL
                       AIR SEA DIR/SP/G            HT/PER HT/PER/DIR
                 (UTC) (F)     (DEG/KT/KT) (MB)    (FT/S) (FT/S/D)
UPR LAKE MARION  NOT AVBL
WINYAH BAY       1800   87     230/  2     1016.0S
LAKE MURRAY      1800   90     180/  4/  5 1015.2F
ACE BASIN NERRS  1800   87     200/  1     1017.0S
FORT PULASKI     1900   84      90/  7/  9 1016.7F
SAPELO ISLAND    1800   89     120/  6     1018.0S

$$

ANZ835-935-AMZ111-154-330-350-352-354-374-450-454-472-282000-
...C-MAN AND BUOY OBSERVATIONS...

STATION/POSITION TIME  TEMP    WIND        PRES    WAVE   SWELL
                       AIR SEA DIR/SP/G            HT/PER HT/PER/DIR
                 (UTC) (F)     (DEG/KT/KT) (MB)    (FT/S) (FT/S/D)
FOLLY BEACH CMAN 1800   83     170/  6/  6 1016.9F
BUOY 41004       1900   80 84  260/  4/  6 1016.2F   4/11   3/11
BUOY 41008       1900   81 85   60/  6/ 10 1016.6F   3/10   3/ 80/10
5E ST. MARYS GA  1900      85                N/A     3/10   2/ 90/11
FRYING PAN BUOY  NOT AVBL
BUOY 41025       1900   81     250/ 12/ 14 1014.5F   5/11   5/130/11
CAPE LOOKOUT NC  1800   81     250/ 11/ 14 1015.3F
BUOY 41002       1752   79 82  350/  4/  6 1016.9F   7/ 8   7/ 80/ 8
BUOY 41010       1900   83 85  140/  6/  8 1016.8R   6/ 9   7/ 30/ 9
BUOY 41012       NOT AVBL
ST AUGUSTINE FL  1900   80      50/  8/  9 1017.0F
CAPERS NEARSHORE 1800   83     210/  6/  6   N/A
FRIPP NEARSHORE  NOT AVBL


$$


USA.gov is the U.S. government's official web portal to all federal, state and local government web resources and services.